Погода в Римавска-Соботе

Словакия     48°22′55″N   20°01′24″E
темп.,
°C
ветер,
м/с
пор.,
м/с
влажн.,
%
обл.,
%
осадки,
мм/ч
давл.,
гПа
погр.,
м
27 января, ср
ср2701:00−4ссз227710 0.0 101440
04:00−4ссз227453 0.0 101440
07:00−5сз117838 0.0 101424
10:00−2з126772 0.0 1014233
13:00+1зюз126286 0.0 1013583
16:00−1юз1177100 0.0 101422
19:00−3ссз2379100 0.0 101350
22:00−4ссз2278100 0.0 101446
28 января, чт
чт2801:00−5с227982 0.0 101438
04:00−6ссз22774 0.0 101334
07:00−6сз11752 0.0 101323
10:00−3юз11630 0.0 1012254
13:00−1юз236414 0.0 1010418
16:00−2юз1186100 0.0 100823
19:00−2зсз1189100 0.0 100728
22:00−2зюз1195100 0.1 100643
29 января, пт
пт2901:00−2ююз1198100 1.3 100458
04:00−2зюз119897 0.7 100221
07:00−3с119488 0.8 100222
10:00−1ююз128754 0.0 1003207
13:00+1юз238967 0.0 1001346
16:000всв0198100 0.3 99836
19:000ююв1199100 3.0 99626
22:00+1юз2499100 1.2 994145
30 января, сб
сб3001:00+1зюз4992100 1.2 994258
04:00+1зюз348899 0.0 99576
07:00−1з249161 0.0 99767
10:00+3зюз388833 0.0 998539
13:00+4з577436 0.0 999789
16:00+1сз1281100 0.0 100064
19:00−2всв1393100 0.1 1003169
22:00−4с2377100 0.1 1004135
31 января, вс
вс3101:00−5с2369100 0.1 1005110
04:00−5с1266100 0.0 100594
07:00−5с1165100 0.0 100751
10:00−2св1151100 0.0 1007249
13:000св1246100 0.0 1006415
16:00−2ююв1161100 0.0 100621
19:00−3с2369100 0.0 100756
22:00−4с236797 0.0 100764